Regional Weather Roundup
Issued by NWS La Crosse, WI

Home | Current Version | Previous Version | Text Only | Print | Product List | Glossary On
Versions: 1 2 3 4 5 6 7 8 9 10 11 12 13 14 15 16 17 18 19 20 21 22 23 24 25 26 27 28 29 30 31 32 33 34 35 36 37 38 39 40 41 42 43 44 45 46 47 48 49 50
000
ASUS43 KARX 270810
RWRARX

HOURLY WEATHER FOR THE UPPER MISSISSIPPI RIVER VALLEY
NATIONAL WEATHER SERVICE LA CROSSE WI
300 AM CDT WED OCT 27 2021

NOTE: "FAIR" indicates few or no clouds below 12,000 feet with no
significant weater and/or obstructions to visibility.

MNZ077-085>088-093>096-270900
Southeast Minnesota

CITY           SKY/WX    TMP DP  RH WIND       PRES   REMARKS
ROCHESTER      CLOUDY    47  37  68 SE20G28   29.91S
WINONA         CLOUDY    46  37  71 SE9       29.98R
AUSTIN         CLOUDY    50  41  71 SE15G25   29.89S
ALBERT LEA     MOCLDY    48  41  76 SE17G28   29.86F
DODGE CENTER     N/A     48  37  66 SE24      29.90S
PRESTON        CLOUDY    45  37  72 SE13      29.95R
OWATONNA       CLOUDY    50  39  66 SE16G25   29.88F
FARIBAULT      DRIZZLE   48  43  81 SE15      29.89F
$$

WIZ041-042-053>056-061-270900
Southwest Wisconsin

CITY           SKY/WX    TMP DP  RH WIND       PRES   REMARKS
LA CROSSE      MOCLDY    45  38  76 SE6       30.00R
SPARTA         CLEAR     41  37  87 CALM      30.02R
VIROQUA        SUNNY     40  40  99 SE8       29.99R WCI  34
WIS DELLS      CLEAR     34  34 100 E6        30.00F WCI  28
PRAIRIE DU CHI PTCLDY    45  38  78 SE6       30.00R
BOSCOBEL       CLEAR     41  37  86 NE3       30.01R
LONE ROCK      CLEAR     39  36  89 E5        30.01F
PLATTEVILLE    FAIR      41  41 100 E9        30.00R
$$

WIZ017-030-034>036-043>045-270900
Central Wisconsin

CITY           SKY/WX    TMP DP  RH WIND       PRES   REMARKS
MEDFORD        CLEAR     34  32  94 E7        30.01F WCI  28
WAUSAU         CLEAR     35  31  85 E6        30.02F WCI  30
BLACK RVR FLS  SUNNY     40  36  86 CALM      30.01R
WIS RAPIDS     CLEAR     35  33  92 E7        30.02F WCI  29
MARSHFIELD     CLEAR     36  31  82 E6        30.01F WCI  31
MAUSTON        FAIR      34  33  97 SE3       30.00F FOG
CAMP DOUGLAS   CLEAR     30  29  93 CALM      30.00F
WAUTOMA        CLEAR     27  26  96 NE5       30.05S WCI  22
$$

IAZ008>011-017>019-029-030-270900
Northeast Iowa

CITY           SKY/WX    TMP DP  RH WIND       PRES   REMARKS
WATERLOO       CLOUDY    50  40  68 SE17G26   29.90S
DUBUQUE        PTCLDY    44  40  85 SE8       29.98R
DECORAH        CLOUDY    45  41  87 SE8       29.95R
MASON CITY     CLOUDY    50  40  68 SE20G31   29.86F
CHARLES CITY   CLOUDY    48  41  76 SE17G28   29.89F
OELWEIN        CLOUDY    46  41  81 SE12      29.94S
$$

Wind speeds are in miles per hour.

 Abbreviations used in the REMARKS:
VSB - Visibility in statute miles
WCI - Wind chill index
HX  - Heat Index



USA.gov is the U.S. government's official web portal to all federal, state and local government web resources and services.